Location: Newark
(40.9833°N, 0.0333°W)
Time: 17:08:39
(UTC+00:00)

Tiros 1 despin weight - All Passes

Search period start: 21 October 2020 00:00
Search period end: 31 October 2020 00:00
Orbit: 594 x 641 km, 48.2° (Epoch: 20 October)

Date Brightness Start Highest point End Pass type
(mag) Time Alt. Az. Time Alt. Az. Time Alt. Az.
21 Oct - 01:37:57 10° S 01:41:02 19° SE 01:44:07 10° E night (unlit)
21 Oct - 03:17:40 10° WSW 03:22:07 90° NW 03:26:33 10° ENE visible
21 Oct - 04:59:56 10° WNW 05:04:01 35° N 05:08:06 10° ENE visible
21 Oct - 06:42:14 10° WNW 06:46:18 35° N 06:50:23 10° ENE daylight
21 Oct - 08:23:47 10° WNW 08:28:13 86° NNE 08:32:41 10° ESE daylight
21 Oct - 10:06:07 10° W 10:09:20 20° SW 10:12:34 10° S daylight
22 Oct - 01:53:09 10° SSW 01:57:13 35° SE 02:01:15 10° ENE night (unlit)
22 Oct - 03:34:16 10° WSW 03:38:38 57° NNW 03:42:59 10° ENE visible
22 Oct - 05:16:47 10° WNW 05:20:46 32° N 05:24:44 10° ENE visible
22 Oct - 06:58:44 10° NW 07:02:59 44° NNE 07:07:14 10° E daylight
22 Oct - 08:40:18 10° WNW 08:44:37 54° SW 08:48:57 10° SE daylight
23 Oct - 00:30:47 10° SSE 00:32:37 12° SE 00:34:27 10° ESE night (unlit)
23 Oct - 02:09:07 10° SW 02:13:31 66° SSE 02:17:54 10° ENE visible
23 Oct - 03:51:04 10° W 03:55:15 40° NNW 03:59:26 10° NE visible
23 Oct - 05:33:31 10° WNW 05:37:30 32° N 05:41:30 10° ENE visible
23 Oct - 07:15:10 10° WNW 07:19:34 66° NNE 07:23:59 10° ESE daylight
23 Oct - 08:57:04 10° WNW 09:00:53 29° SW 09:04:42 10° SSE daylight
24 Oct - 00:45:07 10° S 00:48:44 24° SE 00:52:20 10° E night (unlit)
24 Oct - 02:25:30 10° WSW 02:29:57 74° NNW 02:34:23 10° ENE visible
24 Oct - 04:07:55 10° WNW 04:11:58 33° N 04:15:59 10° ENE visible
24 Oct - 05:50:06 10° NW 05:54:14 38° NNE 05:58:22 10° E visible
24 Oct - 07:31:37 10° WNW 07:36:03 76° SSW 07:40:28 10° SE daylight
24 Oct - 09:14:31 10° W 09:17:01 15° SW 09:19:30 10° SSW daylight
25 Oct - 01:00:41 10° SW 01:04:57 46° SE 01:09:12 10° ENE night (unlit)
25 Oct - 02:42:11 10° W 02:46:31 48° NNW 02:50:48 10° NE visible
25 Oct - 04:24:44 10° WNW 04:28:43 31° N 04:32:41 10° ENE visible
25 Oct - 06:06:33 10° WNW 06:10:53 51° NNE 06:15:12 10° E daylight
25 Oct - 07:48:13 10° WNW 07:52:22 41° SW 07:56:33 10° SSE daylight
25 Oct - 23:37:25 10° S 23:40:16 17° SE 23:43:08 10° E night (unlit)
26 Oct - 01:16:51 10° WSW 01:21:19 83° SSE 01:25:45 10° ENE night (unlit)
26 Oct - 02:59:02 10° W 03:03:10 37° NNW 03:07:17 10° ENE visible
26 Oct - 04:41:24 10° WNW 04:45:28 34° N 04:49:30 10° ENE visible
26 Oct - 06:22:59 10° WNW 06:27:25 80° NNE 06:31:51 10° ESE daylight
26 Oct - 08:05:11 10° W 08:08:35 22° SW 08:11:59 10° S daylight
26 Oct - 23:52:26 10° SSW 23:56:26 32° SE 00:00:24 10° ENE night (unlit)
27 Oct - 01:33:22 10° WSW 01:37:48 61° NNW 01:42:12 10° ENE night (unlit)
27 Oct - 03:15:54 10° WNW 03:19:54 32° N 03:23:53 10° ENE visible
27 Oct - 04:57:56 10° NW 05:02:09 42° NNE 05:06:21 10° E visible
27 Oct - 06:39:29 10° WNW 06:43:50 60° SW 06:48:10 10° SE daylight
27 Oct - 08:23:38 10° WSW 08:24:40 11° SW 08:25:41 10° SW daylight
27 Oct - 22:30:39 10° SE 22:31:52 11° SE 22:33:04 10° ESE night (unlit)
28 Oct - 00:08:18 10° SW 00:12:43 60° SE 00:17:06 10° ENE night (unlit)
28 Oct - 01:50:09 10° W 01:54:24 42° NNW 01:58:38 10° NE night (unlit)
28 Oct - 03:32:39 10° WNW 03:36:39 32° N 03:40:39 10° ENE visible
28 Oct - 05:14:22 10° WNW 05:18:45 61° NNE 05:23:07 10° ESE visible
28 Oct - 06:56:11 10° WNW 07:00:07 32° SW 07:04:02 10° SSE daylight
28 Oct - 22:44:27 10° S 22:47:57 22° SE 22:51:25 10° E night (unlit)
29 Oct - 00:24:37 10° WSW 00:29:08 80° NNW 00:33:35 10° ENE night (unlit)
29 Oct - 02:07:00 10° WNW 02:11:06 34° N 02:15:10 10° ENE visible
29 Oct - 03:49:16 10° WNW 03:53:23 36° NNE 03:57:29 10° E visible
29 Oct - 05:30:49 10° WNW 05:35:14 83° SSW 05:39:39 10° ESE visible
29 Oct - 07:13:27 10° W 07:16:16 17° SW 07:19:02 10° S daylight
29 Oct - 22:59:54 10° SSW 23:04:09 41° SE 23:08:22 10° ENE night (unlit)
30 Oct - 00:41:16 10° W 00:45:40 52° NNW 00:50:01 10° ENE night (unlit)
30 Oct - 02:23:50 10° WNW 02:27:50 32° N 02:31:49 10° ENE visible
30 Oct - 04:05:44 10° NW 04:10:02 48° NNE 04:14:19 10° E visible
30 Oct - 05:47:22 10° WNW 05:51:35 46° SW 05:55:49 10° SE visible
30 Oct - 21:36:54 10° SSE 21:39:30 15° SE 21:42:06 10° E night (unlit)
30 Oct - 23:15:59 10° SW 23:20:30 76° SSE 23:24:57 10° ENE night (unlit)
